Hourly Data Report for June 18, 2021

WRIGLEY A
NORTHWEST TERRITORIES
Current Station Operator: NAVCAN

63°12'35.000" N
123°26'12.000" W
149.70 m
2204005
YWY

Download Data

Hourly Data (June 2021)
Hourly Data Report for June 18, 2021
TIME
LST
Temp Definition
°C
Dew Point Definition
°C
Rel Hum Definition
%
Precip. Amount Definition
mm

Wind Dir Definition
10's deg

Wind Spd Definition
km/h
Visibility Definition
km
Stn Press Definition
kPa
Hmdx Definition


Wind Chill Definition


Weather Definition


00:00 16.9 6.7 51 LegendMM 31 5 LegendMM 99.71     LegendNANA
01:00 15.7 6.7 55 LegendMM 29 7 LegendMM 99.71     LegendNANA
02:00 14.5 6.1 57 LegendMM 32 11 LegendMM 99.74     LegendNANA
03:00 11.3 5.9 69 LegendMM 1 5 LegendMM 99.76     LegendNANA
04:00 9.8 5.4 74 LegendMM 5 7 LegendMM 99.79     LegendNANA
05:00 10.9 5.4 68 LegendMM 36 5 LegendMM 99.79     LegendNANA
06:00 13.2 5.4 59 LegendMM 36 5 LegendMM 99.78     LegendNANA
07:00 14.7 5.7 54 LegendMM 32 7 LegendMM 99.77     LegendNANA
08:00 15.6 6.1 53 LegendMM 31 11 LegendMM 99.77     LegendNANA
09:00 17.2 7.5 53 LegendMM 31 15 LegendMM 99.73     LegendNANA
10:00 19.5 7.1 44 LegendMM 30 18 LegendMM 99.69     LegendNANA
11:00 21.7 6.6 37 LegendMM 30 24 LegendMM 99.63     LegendNANA
12:00 23.8 6.9 33 LegendMM 30 21 LegendMM 99.59     LegendNANA
13:00 24.9 7.6 33 LegendMM 30 21 LegendMM 99.55 25   LegendNANA
14:00 23.8 6.7 33 LegendMM 31 12 LegendMM 99.53     LegendNANA
15:00 26.1 8.0 31 LegendMM 30 15 LegendMM 99.50 27   LegendNANA
16:00 26.6 8.1 30 LegendMM 31 3 LegendMM 99.49 27   LegendNANA
17:00 26.6 5.9 26 LegendMM 1 12 LegendMM 99.47 26   LegendNANA
18:00 25.9 3.8 24 LegendMM 2 11 LegendMM 99.46 25   LegendNANA
19:00 25.2 0.9 20 LegendMM 3 11 LegendMM 99.48     LegendNANA
20:00 24.4 0.0 20 LegendMM 4 10 LegendMM 99.49     LegendNANA
21:00 23.1 0.2 22 LegendMM 8 11 LegendMM 99.53     LegendNANA
22:00 20.1 2.2 30 LegendMM 22 5 LegendMM 99.61     LegendNANA
23:00 17.9 3.3 37 LegendMM 26 9 LegendMM 99.68     LegendNANA

Notes on Data Quality.

Legend

  • E = Estimated
  • M = Missing
  • NA = Not Available*
  • [empty] = Indicates an unobserved value
Date modified: